| time (UTC) | temp F | wind direction | speed MPH | gust MPH | rain 1hr in | rain 24hr in | rain mn in | humidity % | barometer mb |
| 20260831231540 | -90 | 173 | 0.0 | 2.0 | 0.00 | 0.00 | 0.00 | 1006.9 | |
| 20260831230042 | -90 | 173 | 0.0 | 1.0 | 0.00 | 0.00 | 0.00 | 1006.8 | |
| 20260831224532 | -90 | 173 | 1.0 | 4.0 | 0.00 | 0.00 | 0.00 | 1006.7 | |
| 20260831223027 | -90 | 173 | 0.0 | 0.0 | 0.00 | 0.00 | 0.00 | 1006.6 | |
| 20260831221532 | -90 | 173 | 0.0 | 2.0 | 0.00 | 0.00 | 0.00 | 1006.4 | |
| 20260831220018 | -90 | 173 | 3.0 | 6.0 | 0.00 | 0.00 | 0.00 | 1006.4 | |
| 20260831214532 | -90 | 173 | 0.0 | 0.0 | 0.00 | 0.00 | 0.00 | 1006.5 | |
| 20260831213009 | -90 | 173 | 0.0 | 2.0 | 0.00 | 0.00 | 0.00 | 1006.4 | |
| 20260831211504 | -90 | 173 | 0.0 | 4.0 | 0.00 | 0.00 | 0.00 | 1006.4 | |
| 20260831204602 | -90 | 173 | 0.0 | 5.0 | 0.00 | 0.00 | 0.00 | 1006.4 | |
| 20260831203052 | -90 | 173 | 0.0 | 4.0 | 0.00 | 0.00 | 0.00 | 1006.4 | |
| 20260831201550 | -90 | 173 | 0.0 | 0.0 | 0.00 | 0.00 | 0.00 | 1006.3 | |
| 20260831200048 | -90 | 173 | 0.0 | 0.0 | 0.00 | 0.00 | 0.00 | 1006.3 | |
| 20260831194543 | -90 | 173 | 0.0 | 5.0 | 0.00 | 0.00 | 0.00 | 1006.3 | |
| 20260831193036 | -90 | 173 | 2.0 | 7.0 | 0.00 | 0.00 | 0.00 | 1006.2 | |
| 20260831191534 | 0 | 173 | 0.0 | 6.0 | 0.00 | 0.00 | 0.00 | 1006.2 | |
| 20260831190042 | 0 | 173 | 3.0 | 6.0 | 0.00 | 0.00 | 0.00 | 1006.0 | |
| 20260831184523 | 0 | 173 | 2.0 | 4.0 | 0.00 | 0.00 | 0.00 | 1005.9 | |
| 20260831183018 | 0 | 173 | 0.0 | 2.0 | 0.00 | 0.00 | 0.00 | 1005.8 | |
| 20260831181512 | 0 | 173 | 0.0 | 0.0 | 0.00 | 0.00 | 0.00 | 1005.8 | |
| 20260831180007 | 0 | 173 | 0.0 | 4.0 | 0.00 | 0.00 | 0.00 | 1005.7 | |
| 20260831174503 | -90 | 173 | 0.0 | 2.0 | 0.00 | 0.00 | 0.00 | 1005.7 | |
| 20260831173059 | 0 | 173 | 0.0 | 1.0 | 0.00 | 0.00 | 0.00 | 1005.6 | |
| 20260831171554 | -90 | 173 | 0.0 | 2.0 | 0.00 | 0.00 | 0.00 | 1005.5 | |
| 20260831170051 | 0 | 173 | 1.0 | 5.0 | 0.00 | 0.00 | 0.00 | 1005.4 | |
| 20260831164559 | 0 | 173 | 2.0 | 6.0 | 0.00 | 0.00 | 0.00 | 1005.4 | |
| 20260831163043 | 0 | 173 | 4.0 | 7.0 | 0.00 | 0.00 | 0.00 | 1005.4 | |
| 20260831161538 | 0 | 173 | 2.0 | 6.0 | 0.00 | 0.00 | 0.00 | 1005.5 | |
| 20260831160042 | 0 | 173 | 5.0 | 7.0 | 0.00 | 0.00 | 0.00 | 1005.5 | |
| 20260831154533 | 0 | 173 | 2.0 | 6.0 | 0.00 | 0.00 | 0.00 | 1005.5 | |
| 20260831153023 | 0 | 173 | 3.0 | 6.0 | 0.00 | 0.00 | 0.00 | 1005.5 | |
| 20260831151523 | 0 | 173 | 2.0 | 4.0 | 0.00 | 0.00 | 0.00 | 1005.5 | |
| 20260831150022 | 0 | 173 | 3.0 | 5.0 | 0.00 | 0.00 | 0.00 | 1005.7 | |
| 20260831144519 | 0 | 173 | 4.0 | 7.0 | 0.00 | 0.00 | 0.00 | 1005.6 | |
| 20260831143008 | 0 | 173 | 2.0 | 6.0 | 0.00 | 0.00 | 0.00 | 1005.6 | |
| 20260831141504 | 0 | 173 | 2.0 | 7.0 | 0.00 | 0.00 | 0.00 | 1005.5 | |
| 20260831140004 | 0 | 173 | 3.0 | 9.0 | 0.00 | 0.00 | 0.00 | 1005.5 | |
| 20260831134604 | 0 | 173 | 3.0 | 7.0 | 0.00 | 0.00 | 0.00 | 1005.4 | |
| 20260831133056 | 0 | 172 | 2.0 | 7.0 | 0.00 | 0.00 | 0.00 | 1005.3 | |
| 20260831131556 | 0 | 172 | 4.0 | 9.0 | 0.00 | 0.00 | 0.00 | 1005.3 | |
| 20260831130052 | 0 | 172 | 2.0 | 7.0 | 0.00 | 0.00 | 0.00 | 1005.3 | |
| 20260831124549 | 0 | 172 | 1.0 | 5.0 | 0.00 | 0.00 | 0.00 | 1005.2 | |
| 20260831123039 | 0 | 172 | 1.0 | 5.0 | 0.00 | 0.00 | 0.00 | 1005.2 | |
| 20260831121534 | 0 | 172 | 3.0 | 6.0 | 0.00 | 0.00 | 0.00 | 1005.2 | |
| 20260831120048 | 0 | 172 | 4.0 | 7.0 | 0.00 | 0.00 | 0.00 | 1005.2 | |
| 20260831114526 | 0 | 172 | 3.0 | 7.0 | 0.00 | 0.00 | 0.00 | 1005.2 | |
| 20260831113021 | 0 | 172 | 4.0 | 10.0 | 0.00 | 0.00 | 0.00 | 1005.1 | |
| 20260831111518 | 0 | 171 | 4.0 | 8.0 | 0.00 | 0.00 | 0.00 | 1005.1 | |
| 20260831110013 | 0 | 171 | 5.0 | 8.0 | 0.00 | 0.00 | 0.00 | 1005.2 | |
| 20260831104508 | 0 | 171 | 5.0 | 7.0 | 0.00 | 0.00 | 0.00 | 1005.1 | |
| 20260831103003 | 0 | 171 | 2.0 | 8.0 | 0.00 | 0.00 | 0.00 | 1005.1 | |
| 20260831101603 | 0 | 171 | 4.0 | 8.0 | 0.00 | 0.00 | 0.00 | 1005.0 | |
| 20260831100055 | 0 | 170 | 4.0 | 9.0 | 0.00 | 0.00 | 0.00 | 1004.9 | |
| 20260831094557 | 0 | 170 | 6.0 | 9.0 | 0.00 | 0.00 | 0.00 | 1004.9 | |
| 20260831093046 | 0 | 170 | 5.0 | 9.0 | 0.00 | 0.00 | 0.00 | 1004.8 | |
| 20260831091547 | 0 | 170 | 4.0 | 7.0 | 0.00 | 0.00 | 0.00 | 1004.7 | |
| 20260831090041 | 0 | 170 | 3.0 | 6.0 | 0.00 | 0.00 | 0.00 | 1004.8 | |
| 20260831084535 | 0 | 170 | 0.0 | 6.0 | 0.00 | 0.00 | 0.00 | 1004.8 | |
| 20260831083028 | 0 | 170 | 3.0 | 7.0 | 0.00 | 0.00 | 0.00 | 1004.7 | |
| 20260831081524 | 0 | 170 | 2.0 | 7.0 | 0.00 | 0.00 | 0.00 | 1004.8 | |
| 20260831080030 | 0 | 170 | 2.0 | 5.0 | 0.00 | 0.00 | 0.00 | 1004.7 | |
| 20260831074515 | 0 | 170 | 3.0 | 6.0 | 0.00 | 0.00 | 0.00 | 1004.8 | |
| 20260831073011 | 0 | 170 | 3.0 | 7.0 | 0.00 | 0.00 | 0.00 | 1004.8 | |
| 20260831071506 | 0 | 170 | 0.0 | 2.0 | 0.00 | 0.00 | 0.00 | 1004.7 | |
| 20260831070005 | 0 | 170 | 0.0 | 0.0 | 0.00 | 0.00 | 0.00 | 1004.6 | |
| 20260831064558 | 0 | 170 | 0.0 | 0.0 | 0.00 | 0.00 | 0.00 | 1004.5 | |
| 20260831063053 | 0 | 170 | 0.0 | 0.0 | 0.00 | 0.00 | 0.00 | 1004.6 | |
| 20260831061549 | 0 | 170 | 0.0 | 0.0 | 0.00 | 0.00 | 0.00 | 1004.5 | |
| 20260831060050 | 0 | 170 | 0.0 | 0.0 | 0.00 | 0.00 | 0.00 | 1004.5 | |
| 20260831054541 | 0 | 170 | 0.0 | 2.0 | 0.00 | 0.00 | 0.00 | 1004.5 | |
| 20260831053037 | 0 | 170 | 1.0 | 4.0 | 0.00 | 0.00 | 0.00 | 1004.5 | |
| 20260831051538 | 0 | 170 | 0.0 | 0.0 | 0.00 | 0.00 | 0.00 | 1004.5 | |
| 20260831050029 | 0 | 170 | 0.0 | 0.0 | 0.00 | 0.00 | 0.00 | 1004.5 | |
| 20260831044524 | 0 | 170 | 0.0 | 0.0 | 0.00 | 0.00 | 0.00 | 1004.4 | |
| 20260831043018 | 0 | 170 | 0.0 | 0.0 | 0.00 | 0.00 | 0.00 | 1004.3 | |
| 20260831041514 | 0 | 170 | 0.0 | 0.0 | 0.00 | 0.00 | 0.00 | 1004.4 | |
| 20260831040010 | 0 | 170 | 0.0 | 0.0 | 0.00 | 0.00 | 0.00 | 1004.3 | |
| 20260831034509 | 0 | 170 | 0.0 | 1.0 | 0.00 | 0.00 | 0.00 | 1004.3 | |
| 20260831033003 | 0 | 170 | 0.0 | 2.0 | 0.00 | 0.00 | 0.00 | 1004.3 | |
| 20260831031557 | 0 | 170 | 0.0 | 0.0 | 0.00 | 0.00 | 0.00 | 1004.3 | |
| 20260831030052 | 0 | 170 | 0.0 | 4.0 | 0.00 | 0.00 | 0.00 | 1004.2 | |
| 20260831024548 | 0 | 170 | 0.0 | 4.0 | 0.00 | 0.00 | 0.00 | 1004.1 | |
| 20260831023044 | 0 | 170 | 0.0 | 0.0 | 0.00 | 0.00 | 0.00 | 1004.2 | |
| 20260831021540 | 0 | 170 | 0.0 | 5.0 | 0.00 | 0.00 | 0.00 | 1004.2 | |
| 20260831020035 | 0 | 170 | 0.0 | 0.0 | 0.00 | 0.00 | 0.00 | 1004.2 | |
| 20260831014531 | 0 | 170 | 0.0 | 1.0 | 0.00 | 0.00 | 0.00 | 1004.2 | |
| 20260831013027 | 0 | 170 | 0.0 | 0.0 | 0.00 | 0.00 | 0.00 | 1004.2 | |
| 20260831011533 | 0 | 170 | 0.0 | 0.0 | 0.00 | 0.00 | 0.00 | 1004.2 | |
| 20260831010017 | 0 | 170 | 0.0 | 0.0 | 0.00 | 0.00 | 0.00 | 1004.2 | |
| 20260831004513 | 0 | 170 | 0.0 | 0.0 | 0.00 | 0.00 | 0.00 | 1004.2 | |
| 20260831003008 | 0 | 170 | 0.0 | 0.0 | 0.00 | 0.00 | 0.00 | 1004.1 | |
| 20260831001503 | 0 | 170 | 0.0 | 0.0 | 0.00 | 0.00 | 0.00 | 1004.1 | |
| 20260831000100 | 0 | 170 | 0.0 | 0.0 | 0.00 | 0.00 | 0.00 | 1004.1 | |
| 20260830234556 | 0 | 170 | 0.0 | 0.0 | 0.00 | 0.00 | 0.00 | 1004.0 | |
| 20260830233052 | 0 | 170 | 0.0 | 0.0 | 0.00 | 0.00 | 0.00 | 1004.0 |